Flag for San Marino Weather past 2 weeks in San Marino, San Marino

Now
55 °F

Rain. Fog.


Feels Like: 52 °F
Forecast: 47 / 49 °F
Wind: 12 mph from West

Location: Rimini Airport

Current Time: May 22, 2015 at 11:05:57 AM

Latest Report: May 22, 2015 at 10:15 AM


Visibility: 2 mi

Pressure: 29.92 "Hg

Humidity: 100%

Dew point: 55 °F

Location of San MarinoLocation

Historic Weather in San Marino — Graph

°F

San Marino temperature yesterday

Maximum temperature yesterday: 72 °F (at 2:45 PM)
Minimum temperature yesterday: 57 °F (at 10:45 PM)
Average temperature yesterday: 65 °F

Past Weeks' High & Low Weather Summary

 TemperatureHumidityPressure
High84 °F (May 14, 4:45 PM)100% (May 7, 10:15 PM)30.27 "Hg (May 7, 10:15 PM)
Low54 °F (May 8, 4:15 AM)51% (May 14, 4:45 PM)29.65 "Hg (May 15, 6:45 AM)
Average68 °F81%29.96 "Hg
* Reported May 7 9:15 AM — May 22 9:45 AM, San Marino, Weather by CustomWeather, © 2015

Note: Actual official high and low records may vary slightly from our data, if they occured in-between our weather recording intervals... More about our weather records

Advertising

San Marino weather history for previous 24 hours

 ConditionsComfort  
Time TempWeatherWind HumidityBarometerVisibility
9:45 AM
Fri, May 22
55 °FLight rain. Fog.9 mph77%29.92 "Hg2 mi
9:15 AM55 °FLight rain. Fog.13 mph100%29.92 "Hg2 mi
8:45 AM55 °FLight rain. Partly sunny.13 mph100%29.92 "Hg2 mi
8:15 AM55 °FLight rain. Partly sunny.16 mph100%29.92 "Hg4 mi
7:45 AM54 °FLight rain. Broken clouds.16 mph100%29.95 "Hg4 mi
7:15 AM55 °FLight rain. Broken clouds.16 mph100%29.95 "Hg4 mi
6:45 AM55 °FRain. Broken clouds.15 mph100%29.95 "Hg4 mi
6:15 AM55 °FRain. Passing clouds.12 mph100%29.98 "Hg4 mi
5:15 AM59 °FRain. Partly cloudy.14 mph100%29.95 "Hg4 mi
4:45 AM59 °FRain. Passing clouds.13 mph100%29.95 "Hg4 mi
4:15 AM61 °FRain. Passing clouds.21 mph94%29.95 "Hg5 mi
3:45 AM61 °FLight rain. Partly cloudy.18 mph100%29.95 "Hg5 mi
3:15 AM59 °FRain. Passing clouds.10 mph100%29.92 "Hg4 mi
2:45 AM57 °FHeavy rain. Fog.14 mph100%29.95 "Hg2 mi
2:15 AM57 °FRain. Passing clouds.12 mph100%29.95 "Hg4 mi
1:15 AM59 °FPassing clouds.10 mph100%29.98 "HgN/A
12:45 AM59 °FPassing clouds.12 mph100%29.98 "HgN/A
11:45 PM
Thu, May 21
57 °FPassing clouds.12 mph100%29.98 "HgN/A
11:15 PM57 °FPassing clouds.8 mph100%29.98 "HgN/A
10:45 PM57 °FPassing clouds.9 mph100%29.98 "HgN/A
10:15 PM59 °FPassing clouds.10 mph100%29.98 "HgN/A
9:45 PM59 °FThunderstorms. Passing clouds.12 mph100%29.98 "HgN/A
9:15 PM59 °FThunderstorms. Scattered clouds.9 mph100%29.95 "HgN/A
8:45 PM59 °FThunderstorms. Scattered clouds.9 mph100%29.95 "HgN/A
8:15 PM61 °FThunderstorms. Broken clouds.10 mph100%29.95 "HgN/A
7:45 PM68 °FThunderstorms. Scattered clouds.9 mph73%29.92 "HgN/A
7:15 PM68 °FThunderstorms. Scattered clouds.12 mph73%29.89 "HgN/A
6:45 PM68 °FPartly sunny.13 mph73%29.89 "HgN/A
6:15 PM68 °FPartly sunny.9 mph73%29.89 "HgN/A
5:45 PM68 °FPartly sunny.10 mph73%29.89 "HgN/A
5:15 PM70 °FPartly sunny.12 mph69%29.89 "HgN/A
4:45 PM70 °FPartly sunny.13 mph69%29.89 "HgN/A
4:15 PM70 °FScattered clouds.12 mph73%29.89 "HgN/A
3:45 PM68 °FScattered clouds.13 mph73%29.89 "HgN/A
3:15 PM70 °FScattered clouds.14 mph73%29.89 "HgN/A
2:45 PM72 °FScattered clouds.12 mph65%29.89 "HgN/A
2:15 PM70 °FScattered clouds.5 mph64%29.89 "HgN/A
1:45 PM70 °FPartly sunny.9 mph69%29.89 "HgN/A
1:15 PM70 °FScattered clouds.10 mph69%29.89 "HgN/A
12:45 PM70 °FScattered clouds.3 mph64%29.89 "HgN/A
12:15 PM70 °FScattered clouds.7 mph69%29.89 "HgN/A
11:45 AM70 °FScattered clouds.8 mph64%29.89 "HgN/A
11:15 AM70 °FScattered clouds.7 mph64%29.92 "HgN/A
Weather by CustomWeather, © 2015

See weather overviewHow to use our weather pages